When you browse on this site, cookies collect data to enhance your experience and personalize the content and advertising you see.
Visit our Privacy Policy to learn more. By continuing to use the site, you agree to this use of cookies and data.
  • In Schweiz
  • Länderverzeichnis
  • Für 7 Tage
  • Wassertemperatur
  • Satellitenkarten
  • Wetterkarte
  • Widgets
  • user-avatar
    Anmelden

    Stündliche Wetter Kurytyba

    Heute, 21 November, Mittwoch

    Zeit Temperatur Niederschläge Wind Luftdruck Luftfeuchtigkeit
    00:00 +13°C° 0 mm 1 m/S 684 mmHg 94%
    01:00 +13°C° 0 mm 1 m/S 683 mmHg 94%
    02:00 +12°C° 0 mm 1 m/S 683 mmHg 95%
    03:00 +11°C° 0 mm 0 m/S 683 mmHg 95%
    04:00 +11°C° 0 mm 0 m/S 683 mmHg 95%
    05:00 +11°C° 0 mm 0 m/S 683 mmHg 95%
    06:00 +12°C° 0 mm 1 m/S 683 mmHg 95%
    07:00 +14°C° 0 mm 1 m/S 684 mmHg 85%
    08:00 +16°C° 0 mm 1 m/S 684 mmHg 76%
    09:00 +19°C° 0 mm 1 m/S 685 mmHg 66%
    10:00 +20°C° 0 mm 2 m/S 685 mmHg 64%
    11:00 +21°C° 0 mm 2 m/S 685 mmHg 61%
    12:00 +23°C° 0 mm 2 m/S 685 mmHg 59%
    13:00 +23°C° 0 mm 2 m/S 684 mmHg 60%
    14:00 +23°C° 0 mm 2 m/S 684 mmHg 61%
    15:00 +23°C° 0 mm 2 m/S 684 mmHg 62%
    16:00 +21°C° 0 mm 2 m/S 683 mmHg 68%
    17:00 +20°C° 0 mm 2 m/S 683 mmHg 75%
    18:00 +19°C° 0 mm 2 m/S 682 mmHg 81%
    19:00 +18°C° 0 mm 2 m/S 682 mmHg 85%
    20:00 +18°C° 0 mm 1 m/S 683 mmHg 89%
    21:00 +16°C° 0 mm 1 m/S 683 mmHg 94%
    22:00 +15°C° 0 mm 1 m/S 683 mmHg 95%
    23:00 +15°C° 0 mm 1 m/S 683 mmHg 96%

    Morgen, 22 November, Donnerstag

    Zeit Temperatur Niederschläge Wind Luftdruck Luftfeuchtigkeit
    00:00 +15°C° 0 mm 1 m/S 683 mmHg 98%
    01:00 +15°C° 0 mm 1 m/S 682 mmHg 97%
    02:00 +15°C° 0 mm 1 m/S 682 mmHg 96%
    03:00 +15°C° 0 mm 1 m/S 681 mmHg 96%
    04:00 +16°C° 0.1 mm 1 m/S 682 mmHg 96%
    05:00 +16°C° 0.1 mm 1 m/S 682 mmHg 96%
    06:00 +15°C° 0.1 mm 0 m/S 682 mmHg 96%
    07:00 +19°C° 0 mm 1 m/S 682 mmHg 90%
    08:00 +21°C° 0 mm 1 m/S 683 mmHg 84%
    09:00 +22°C° 0 mm 1 m/S 684 mmHg 78%
    10:00 +23°C° 0.2 mm 1 m/S 683 mmHg 74%
    11:00 +25°C° 0.2 mm 1 m/S 683 mmHg 70%
    12:00 +26°C° 0.2 mm 1 m/S 683 mmHg 66%
    13:00 +26°C° 0.5 mm 1 m/S 683 mmHg 64%
    14:00 +27°C° 0.5 mm 1 m/S 682 mmHg 63%
    15:00 +28°C° 0.5 mm 1 m/S 682 mmHg 62%
    16:00 +26°C° 0.6 mm 1 m/S 681 mmHg 70%
    17:00 +24°C° 0.6 mm 1 m/S 681 mmHg 79%
    18:00 +21°C° 0.6 mm 2 m/S 681 mmHg 88%
    19:00 +21°C° 0.2 mm 1 m/S 681 mmHg 91%
    20:00 +21°C° 0.2 mm 1 m/S 681 mmHg 94%
    21:00 +20°C° 0.2 mm 1 m/S 682 mmHg 98%
    22:00 +20°C° 0 mm 1 m/S 682 mmHg 98%
    23:00 +19°C° 0 mm 1 m/S 682 mmHg 98%

    übermorgen, 23 November, Freitag

    Zeit Temperatur Niederschläge Wind Luftdruck Luftfeuchtigkeit
    00:00 +19°C° 0 mm 1 m/S 682 mmHg 98%
    01:00 +19°C° 0 mm 1 m/S 681 mmHg 98%
    02:00 +19°C° 0 mm 1 m/S 680 mmHg 98%
    03:00 +19°C° 0 mm 1 m/S 680 mmHg 98%
    04:00 +19°C° 0 mm 1 m/S 680 mmHg 98%
    05:00 +19°C° 0 mm 1 m/S 680 mmHg 97%
    06:00 +19°C° 0 mm 1 m/S 680 mmHg 97%
    07:00 +21°C° 0 mm 1 m/S 681 mmHg 88%
    08:00 +23°C° 0 mm 1 m/S 681 mmHg 78%
    09:00 +25°C° 0 mm 1 m/S 682 mmHg 68%
    10:00 +26°C° 0.6 mm 1 m/S 682 mmHg 67%
    11:00 +27°C° 0.6 mm 1 m/S 682 mmHg 65%
    12:00 +28°C° 0.6 mm 1 m/S 681 mmHg 63%
    13:00 +28°C° 0.9 mm 1 m/S 681 mmHg 63%
    14:00 +28°C° 0.9 mm 1 m/S 680 mmHg 62%
    15:00 +28°C° 0.9 mm 1 m/S 679 mmHg 62%
    16:00 +27°C° 1 mm 1 m/S 679 mmHg 71%
    17:00 +25°C° 1 mm 1 m/S 679 mmHg 79%
    18:00 +23°C° 1 mm 1 m/S 679 mmHg 88%
    19:00 +22°C° 1.1 mm 1 m/S 679 mmHg 90%
    20:00 +21°C° 1.1 mm 1 m/S 679 mmHg 92%
    21:00 +20°C° 1.1 mm 1 m/S 680 mmHg 94%
    22:00 +20°C° 0.3 mm 1 m/S 680 mmHg 95%
    23:00 +20°C° 0.3 mm 1 m/S 679 mmHg 95%

    24 November, Samstag

    Zeit Temperatur Niederschläge Wind Luftdruck Luftfeuchtigkeit
    00:00 +20°C° 0.3 mm 1 m/S 679 mmHg 96%
    01:00 +20°C° 0.6 mm 1 m/S 679 mmHg 96%
    02:00 +19°C° 0.6 mm 1 m/S 678 mmHg 97%
    03:00 +19°C° 0.6 mm 1 m/S 678 mmHg 97%
    04:00 +19°C° 1.1 mm 1 m/S 678 mmHg 97%
    05:00 +19°C° 1.1 mm 1 m/S 678 mmHg 97%
    06:00 +19°C° 1.1 mm 1 m/S 678 mmHg 97%
    07:00 +19°C° 1.8 mm 1 m/S 679 mmHg 97%
    08:00 +20°C° 1.8 mm 1 m/S 679 mmHg 97%
    09:00 +20°C° 1.8 mm 1 m/S 680 mmHg 97%
    10:00 +20°C° 1.8 mm 1 m/S 680 mmHg 96%
    11:00 +20°C° 1.8 mm 1 m/S 679 mmHg 95%
    12:00 +20°C° 1.8 mm 1 m/S 679 mmHg 95%
    13:00 +20°C° 2 mm 1 m/S 678 mmHg 95%
    14:00 +20°C° 2 mm 1 m/S 678 mmHg 96%
    15:00 +19°C° 2 mm 2 m/S 677 mmHg 97%
    16:00 +18°C° 2.3 mm 2 m/S 677 mmHg 97%
    17:00 +18°C° 2.3 mm 2 m/S 677 mmHg 97%
    18:00 +18°C° 2.3 mm 2 m/S 677 mmHg 98%
    19:00 +18°C° 3.6 mm 2 m/S 677 mmHg 98%
    20:00 +18°C° 3.6 mm 2 m/S 677 mmHg 98%
    21:00 +18°C° 3.6 mm 2 m/S 677 mmHg 98%
    22:00 +18°C° 4.7 mm 2 m/S 677 mmHg 98%
    23:00 +18°C° 4.7 mm 2 m/S 677 mmHg 98%

    25 November, Sonntag

    Zeit Temperatur Niederschläge Wind Luftdruck Luftfeuchtigkeit
    00:00 +18°C° 4.7 mm 2 m/S 677 mmHg 98%
    01:00 +18°C° 1.5 mm 2 m/S 677 mmHg 98%
    02:00 +18°C° 1.5 mm 2 m/S 676 mmHg 98%
    03:00 +18°C° 1.5 mm 2 m/S 676 mmHg 98%
    04:00 +19°C° 0.6 mm 1 m/S 676 mmHg 98%
    05:00 +19°C° 0.6 mm 1 m/S 676 mmHg 98%
    06:00 +19°C° 0.6 mm 1 m/S 676 mmHg 98%
    07:00 +19°C° 0.2 mm 1 m/S 677 mmHg 97%
    08:00 +19°C° 0.2 mm 1 m/S 677 mmHg 97%
    09:00 +20°C° 0.2 mm 1 m/S 678 mmHg 96%
    10:00 +20°C° 0.1 mm 1 m/S 678 mmHg 92%
    11:00 +21°C° 0.1 mm 1 m/S 678 mmHg 88%
    12:00 +22°C° 0.1 mm 1 m/S 678 mmHg 83%
    13:00 +23°C° 0.2 mm 1 m/S 678 mmHg 79%
    14:00 +24°C° 0.2 mm 2 m/S 677 mmHg 74%
    15:00 +25°C° 0.2 mm 2 m/S 677 mmHg 70%
    16:00 +24°C° 0.1 mm 2 m/S 677 mmHg 75%
    17:00 +23°C° 0.1 mm 2 m/S 677 mmHg 81%
    18:00 +21°C° 0.1 mm 2 m/S 677 mmHg 86%
    19:00 +20°C° 0.1 mm 2 m/S 678 mmHg 89%
    20:00 +20°C° 0.1 mm 1 m/S 678 mmHg 92%
    21:00 +19°C° 0.1 mm 1 m/S 678 mmHg 95%
    22:00 +19°C° 0 mm 1 m/S 678 mmHg 96%
    23:00 +19°C° 0 mm 1 m/S 678 mmHg 96%

    26 November, Montag

    Zeit Temperatur Niederschläge Wind Luftdruck Luftfeuchtigkeit
    00:00 +18°C° 0 mm 1 m/S 678 mmHg 96%
    01:00 +18°C° 0 mm 1 m/S 678 mmHg 96%
    02:00 +18°C° 0 mm 1 m/S 678 mmHg 96%
    03:00 +18°C° 0 mm 1 m/S 677 mmHg 95%
    04:00 +18°C° 0 mm 1 m/S 678 mmHg 95%
    05:00 +18°C° 0 mm 1 m/S 678 mmHg 95%
    06:00 +18°C° 0 mm 1 m/S 678 mmHg 95%
    07:00 +19°C° 0 mm 1 m/S 679 mmHg 89%
    08:00 +20°C° 0 mm 1 m/S 679 mmHg 83%
    09:00 +20°C° 0 mm 2 m/S 680 mmHg 77%
    10:00 +21°C° 0 mm 2 m/S 680 mmHg 73%
    11:00 +23°C° 0 mm 2 m/S 680 mmHg 70%
    12:00 +24°C° 0 mm 2 m/S 680 mmHg 67%
    13:00 +24°C° 0.1 mm 2 m/S 679 mmHg 68%
    14:00 +24°C° 0.1 mm 2 m/S 679 mmHg 69%
    15:00 +24°C° 0.1 mm 2 m/S 679 mmHg 71%
    16:00 +23°C° 0.1 mm 2 m/S 679 mmHg 75%
    17:00 +21°C° 0.1 mm 2 m/S 679 mmHg 80%
    18:00 +20°C° 0.1 mm 3 m/S 679 mmHg 84%
    19:00 +19°C° 0.2 mm 3 m/S 679 mmHg 87%
    20:00 +18°C° 0.2 mm 3 m/S 679 mmHg 90%
    21:00 +17°C° 0.2 mm 3 m/S 680 mmHg 92%
    22:00 +17°C° 0.1 mm 2 m/S 680 mmHg 92%
    23:00 +17°C° 0.1 mm 2 m/S 680 mmHg 93%
    Mehr zeigen